Location: Klengen
(48.0059°N, 8.4719°E)
Time: 00:04:26
(UTC+00:00)

Daily predictions for brighter satellites

Satellite Brightness Start Highest point End
(mag) Time Altitude Azimuth Time Altitude Azimuth Time Altitude Azimuth
ADEOS II 4.5 00:59:54 10° NNE 01:01:33 19° NE 01:01:33 19° NE
ATLAS CENTAUR R/B 4.3 01:32:08 17° ENE 01:32:08 17° ENE 01:33:31 10° NE
Cosmos 1980 Rocket 4.3 01:30:46 10° NNW 01:41:00 10° ESE 01:32:42 20° N
ATLAS 5 CENTAUR R/B 4.5 01:41:57 12° N 01:41:57 12° N 01:43:17 10° NNE
SL-16 R/B 4.4 01:51:00 19° NNW 01:51:00 19° NNW 01:52:37 10° NNW
ALOS 4.1 02:01:32 10° NE 02:05:10 27° E 02:05:10 27° E
Resurs 1-4 Rocket 4.0 02:01:18 10° N 02:03:14 22° N 02:03:14 22° N
IDEFIX/ARIANE 42P 4.0 02:02:58 10° N 02:05:39 31° N 02:05:39 31° N
Cosmos 1833 Rocket 3.3 02:13:00 52° NNE 02:13:00 52° NNE 02:17:13 10° NNE
CZ-2D R/B 3.9 02:16:53 10° N 02:18:59 21° NNW 02:18:59 21° NNW
CENTAUR R/B 3.4 02:27:14 33° SE 02:28:39 38° ESE 02:34:51 10° NE
Lacrosse 4 Rocket 3.4 02:30:46 18° N 02:33:04 28° NE 02:36:54 10° ESE
ARIANE 5 R/B 4.5 02:29:21 10° NE 02:33:26 25° E 02:37:29 10° SSE
CZ-2C R/B 4.2 02:29:24 10° SE 02:34:06 34° ENE 02:38:54 10° N
Helios 1B rocket 4.2 02:34:47 10° NE 02:38:20 28° E 02:39:02 26° ESE
Cosmos 1447 Rocket 4.3 02:32:17 10° N 02:38:38 83° W 02:38:47 82° SW
Meteor 1-10 Rocket 4.1 02:39:08 84° NE 02:39:08 84° NE 02:44:41 10° NNE
Cosmos 2082 Rocket 2.4 02:38:49 58° SE 02:39:21 61° ESE 02:44:54 10° NNE
ADEOS II 3.5 02:39:42 10° N 02:42:27 26° NNW 02:42:27 26° NNW
Cosmos 1624 Rocket 4.2 02:50:30 60° NNW 02:50:30 60° NNW 02:55:11 10° NNE
CZ-2C R/B 2.9 02:45:12 10° NNE 02:50:04 56° E 02:51:09 45° SE
USA 307 4.0 02:51:30 39° NNE 02:51:30 39° NNE 02:54:32 10° ENE
USA 306 3.8 03:00:25 39° N 03:00:25 39° N 03:03:47 10° ENE
Cosmos 1459 Rocket 4.3 02:55:35 15° S 03:00:55 66° E 03:07:14 10° NNE
COSMOS 2406 3.0 03:01:52 68° WSW 03:02:23 73° WNW 03:08:06 10° NNE
BREEZE-M DEB (TANK) 3.5 03:04:00 33° SE 03:04:00 33° SE 03:07:21 10° ESE
NOSS 3-2 (A) 3.6 03:01:33 43° S 03:03:14 62° ESE 03:09:28 10° NE
Cosmos 1605 Rocket 4.3 03:06:05 45° WNW 03:06:05 45° WNW 03:11:38 10° N
Cosmos 1371 Rocket 4.5 03:06:18 45° NW 03:06:18 45° NW 03:10:51 10° NNE
ATLAS CENTAUR R/B 2.2 03:08:06 46° NNW 03:08:06 46° NNW 03:12:30 10° NNE
Meteor 2-13 Rocket 4.4 03:02:09 10° N 03:08:21 87° E 03:14:31 10° S
Cosmos 1328 Rocket 4.1 03:12:11 47° NNW 03:12:11 47° NNW 03:15:37 10° N
Cosmos 1933 Rocket 3.8 03:07:48 10° N 03:12:15 69° E 03:16:37 10° SSE
Cosmos 2322 Rocket 3.6 03:08:43 10° NNW 03:14:03 39° NE 03:19:20 10° ESE
IRS-1C 4.4 03:09:54 10° NNE 03:15:13 66° ESE 03:19:32 16° S
X-37B 3.3 03:18:10 12° SE 03:18:10 12° SE 03:18:26 10° SE
Meteor 1-11 Rocket 3.9 03:11:30 10° NNW 03:17:17 52° W 03:18:14 47° SW
Cosmos 1980 Rocket 3.5 03:23:06 23° SSW 03:23:06 23° SSW 03:25:18 10° S
SL-08 R/B 4.0 03:15:40 10° SE 03:20:14 54° ENE 03:24:55 10° N
Cosmos 1975 4.5 03:16:32 10° N 03:20:14 34° ENE 03:23:52 10° SE
COSMOS 2455 4.3 03:16:07 10° NNW 03:21:41 37° NE 03:27:14 10° ESE
BREEZE M DEB (TANK) 4.2 03:16:14 27° SW 03:23:36 64° SSE 03:28:05 10° ENE
Cosmos 1850 Rocket 3.9 03:20:35 10° NNW 03:25:56 78° WSW 03:31:17 10° SSE
USA 308 3.6 03:25:30 36° NNW 03:26:03 38° N 03:29:56 10° ENE
PAYLOAD A 3.8 03:21:29 10° N 03:26:20 74° WNW 03:28:15 38° SSW
Cosmos 44 Rocket 3.4 03:26:24 50° WNW 03:26:54 52° NW 03:31:31 10° NNE
SL-19 R/B 4.4 03:21:09 10° NNE 03:27:17 69° WNW 03:30:18 30° SW
ATLAS 5 CENTAUR R/B 4.2 03:24:29 10° NNW 03:27:39 17° NNE 03:31:12 10° ENE
Meteor 2-9 Rocket 4.1 03:24:20 10° NNW 03:30:05 85° W 03:35:38 10° S
Cosmos 1802 Rocket 4.0 03:23:57 10° S 03:30:19 85° E 03:36:38 10° N
Cosmos 1725 Rocket 4.3 03:24:16 10° S 03:30:32 68° E 03:36:49 10° NNE
Cosmos 1378 3.2 03:30:12 38° S 03:31:27 73° E 03:35:06 10° NNE
CBERS-1 4.2 03:27:57 10° N 03:32:52 48° WNW 03:33:56 42° WSW
Cosmos 2056 Rocket 4.4 03:35:21 29° WNW 03:35:32 29° NW 03:40:01 10° N
Meteor 1-19 Rocket 4.0 03:32:43 12° S 03:37:52 89° W 03:43:20 10° NNE
Cosmos 2173 Rocket 3.9 03:33:20 18° SSW 03:37:58 68° WNW 03:44:04 10° N
Cosmos 1346 Rocket 4.5 03:40:21 20° NW 03:40:21 20° NW 03:42:12 10° NNW
Cosmos 1515 Rocket 3.6 03:37:57 42° SW 03:39:10 58° WNW 03:43:36 10° N
GP-B 3.2 03:35:39 10° S 03:40:03 75° E 03:44:31 10° N
ALOS 2.7 03:38:39 10° N 03:42:59 39° WNW 03:43:37 37° W
Cosmos 1461 2.7 03:42:22 47° WSW 03:43:24 71° NW 03:47:37 10° NE
Cosmos 2278 3.7 03:38:46 10° NW 03:44:16 53° WSW 03:49:43 10° S
SL-16 R/B 2.2 03:39:10 10° NNW 03:44:54 83° ENE 03:50:34 10° SSE
USA 305 3.9 03:44:58 26° NW 03:46:31 35° N 03:50:19 10° ENE
FENGYUN 3A 4.3 03:45:16 10° N 03:50:04 34° WNW 03:51:35 29° W
METEOR-M 4.1 03:47:11 10° N 03:52:28 60° WNW 03:56:56 14° SSW
IRS-P3 4.1 03:49:51 10° N 03:55:09 68° WNW 04:00:26 10° SSW
CZ-3 R/B 4.3 03:39:43 17° SW 03:55:57 32° S 04:04:21 10° SE
Cosmos 1833 Rocket 4.1 03:54:43 19° WNW 03:56:14 21° NW 04:00:30 10° N
SJ 16-02 4.3 03:53:52 10° NNE 03:56:22 15° NE 03:58:52 10° E
Cosmos 1741 Rocket 4.2 03:52:36 10° NW 03:57:33 44° WSW 04:02:28 10° S
Cosmos 192 4.3 03:54:39 10° SSW 03:59:38 90° ENE 04:04:37 10° NNE
Cosmos 2228 Rocket 3.3 03:58:10 10° S 04:02:37 75° E 04:07:03 10° NNE
Cosmos 1331 Rocket 3.9 04:00:13 12° SSW 04:04:59 72° WNW 04:10:11 10° NNE
Cosmos 2219 Rocket 4.0 04:00:18 10° NNW 04:05:19 31° NE 04:10:17 10° ESE
Spot 4 Rocket 4.2 04:00:10 10° NNE 04:05:20 76° ESE 04:10:27 10° S
YAOGAN 6 2.5 04:02:09 10° N 04:05:46 68° WNW 04:09:19 10° SSW
Cosmos 1302 Rocket 4.5 04:04:01 10° S 04:09:13 65° ESE 04:14:29 10° NNE
Cosmos 1726 4.4 04:06:44 10° NNE 04:09:54 27° ENE 04:13:00 10° SE
Cosmos 1484 Rocket 2.9 04:07:01 10° N 04:10:54 52° WNW 04:14:44 10° SSW
Lacrosse 4 Rocket 1.8 04:07:40 10° NW 04:11:50 43° WSW 04:16:02 10° S
Lacrosse 5 rocket 3.8 04:08:52 10° S 04:12:25 23° SE 04:15:56 10° ENE
ARIANE 5 R/B 2.7 04:07:56 10° N 04:12:46 48° WNW 04:17:32 10° SW
Helios 1B rocket 3.3 04:09:51 10° N 04:13:25 30° WNW 04:15:11 21° WSW
CZ-2C R/B 3.0 04:09:25 10° SSW 04:14:18 39° W 04:19:21 10° NNW
Meteor 1-29 2.7 04:13:12 10° N 04:16:30 71° WNW 04:19:48 10° SSW
CZ-2C R/B 3.2 04:13:03 10° NNE 04:18:49 86° WNW 04:24:17 10° SSW
CENTAUR R/B 2.8 04:14:25 18° WSW 04:19:02 55° NW 04:26:15 10° NE
CZ-4C R/B 3.5 04:17:02 10° S 04:21:16 69° WSW 04:25:38 10° NNW
Cosmos 1110 Rocket 4.2 04:16:35 11° SW 04:21:23 49° WNW 04:26:26 10° NNE
Cosmos 2333 Rocket 3.1 04:16:12 10° NNW 04:21:48 53° ENE 04:27:19 10° SE
Cosmos 2016 Rocket 4.2 04:15:40 10° SSW 04:21:50 51° WNW 04:28:03 10° N
COSMO-SKYMED 1 3.0 04:19:27 10° SSE 04:23:45 68° ENE 04:28:05 10° N
Cosmos 1707 Rocket 3.8 04:19:31 10° S 04:23:50 73° E 04:28:10 10° NNE
Cosmos 2082 Rocket 3.2 04:20:42 17° W 04:23:51 28° NW 04:28:39 10° NNE
Okean 1 4.4 04:23:13 17° WSW 04:25:12 25° WNW 04:28:35 10° NNW
CZ-2C R/B 3.6 04:24:07 10° N 04:27:53 22° WNW 04:30:30 15° W
Cosmos 1452 Rocket 4.3 04:24:11 15° WSW 04:27:54 32° NW 04:32:40 10° N
Cosmos 1869 Rocket 4.0 04:23:52 10° NNW 04:28:00 39° W 04:32:05 10° SSW
USA 276 2.8 04:26:13 14° SW 04:28:35 45° SSE 04:31:31 10° E
Cosmos 2360 Rocket 2.2 04:23:13 10° NNW 04:28:52 86° ENE 04:34:29 10° SSE
Meteor 1-18 Rocket 4.3 04:23:25 10° SSW 04:29:00 58° WNW 04:34:33 10° N
Envisat 3.1 04:24:16 10° N 04:29:14 56° WNW 04:34:12 10° SSW
USA 307 4.0 04:27:02 12° WNW 04:30:29 35° N 04:34:18 10° ENE
Cosmos 968 Rocket 3.4 04:25:37 10° NNW 04:30:44 63° WSW 04:35:46 10° S
ERBS 4.4 04:29:13 10° NNW 04:30:59 15° N 04:32:45 10° NE
Meteor 2-10 4.1 04:26:49 10° N 04:32:00 80° ENE 04:37:02 10° SSE
COSMOS 2487 3.9 04:30:50 10° S 04:33:25 32° ESE 04:36:01 10° NE
MINOTAUR 4 R/B 3.9 04:32:10 10° S 04:35:39 71° WSW 04:39:09 10° NNW
USA 306 3.9 04:35:59 10° WNW 04:39:49 37° N 04:43:39 10° ENE
H-2A R/B 2.8 04:36:42 10° N 04:40:16 50° WNW 04:43:49 10° SSW
Cosmos 2061 Rocket 4.3 04:36:26 10° SW 04:42:15 42° WNW 04:48:08 10° N
SL-24 R/B - RUBIN 2 4.2 04:38:52 12° WSW 04:42:40 37° NW 04:46:46 10° NNE
Cosmos 405 Rocket 4.3 04:40:17 10° SSE 04:44:00 42° E 04:47:48 10° NNE
PSLV R/B 3.6 04:41:12 10° N 04:45:29 62° WNW 04:49:41 10° SSW
Cosmos 1939 Rocket 4.2 04:41:53 10° NNE 04:45:46 45° E 04:49:33 10° S
Cosmos 1733 Rocket 3.0 04:42:41 10° NNW 04:47:06 71° W 04:51:28 10° S
ATLAS CENTAUR R/B 3.7 04:44:46 10° WNW 04:47:40 16° NNW 04:50:32 10° NNE
Cosmos 1066 Rocket 4.3 04:43:35 10° S 04:49:19 87° E 04:54:57 10° NNE
Cosmos 2344 4.4 04:40:54 10° NW 04:49:39 85° NE 05:01:54 10° SE
Meteor 2-4 Rocket 4.0 04:46:02 10° SW 04:51:30 45° WNW 04:56:50 10° N
COSMOS 2428 3.9 04:47:35 10° NNW 04:53:07 45° NE 04:58:33 10° SE
NOSS 3-2 (A) 4.2 04:49:09 10° W 04:54:28 37° NNW 05:00:41 10° NE
Genesis I 4.1 04:51:01 10° SSW 04:54:55 53° ESE 04:58:54 10° NE
NOSS 3-2 (C) 3.6 04:49:29 10° WSW 04:54:58 53° NW 05:01:26 10° NE
Cosmos 1975 4.0 04:53:22 10° NW 04:56:22 21° W 04:59:20 10° SW
Cosmos 2322 Rocket 2.6 04:52:51 10° NW 04:58:08 40° WSW 05:03:21 10° S
Cosmos 1437 Rocket 3.3 04:55:11 10° N 04:59:00 62° ENE 05:02:51 10° SSE
Cosmos 2333 4.2 04:53:33 10° NNW 04:59:15 88° WSW 05:04:52 10° SSE
CZ-2C R/B 3.2 04:56:47 10° N 05:00:23 41° WNW 05:04:01 10° SW
Cosmos 2233 Rocket 4.4 04:57:18 10° SW 05:03:13 41° WNW 05:09:11 10° N
